Location: Chassagnes
(44.4047°N, 4.1657°E)
Time: 12:52:13
(UTC+00:00)

NOSS 3-3 (A) - Pass Details

Date: 27 October 2020
Orbit: 826 x 1387 km, 63.4° (Epoch: 22 November)

Event Time Altitude Azimuth Distance (km) Brightness Sun altitude
Rises 17:41:58 0° 187° (S) 3,381 7.0 -11.8°
Reaches altitude 10° 17:44:31 10° 178° (S) 2,486 6.2 -12.2°
Maximum altitude 17:49:39 35° 114° (ESE) 1,423 4.4 -13.1°
Enters shadow 17:54:20 14° 55° (NE) 2,420 5.6 -13.9°
